Location: Gleizolles
(44.4833°N, 6.7667°E)
Time: 13:37:34
(UTC+00:00)

Vanguard 1 - Pass Details

Date: 25 June 2024
Orbit: 650 x 3826 km, 34.3° (Epoch: 15 July)

Event Time Altitude Azimuth Distance (km) Brightness Sun altitude
Rises 09:02:52 0° 218° (SW) 6,348 14.1 52.4°
Reaches altitude 10° 09:08:48 10° 207° (SSW) 4,714 13.6 53.4°
Maximum altitude 09:17:14 23° 162° (SSE) 2,864 13.2 54.8°
Drops below altitude 10° 09:22:56 10° 114° (ESE) 3,056 13.4 55.7°
Sets 09:25:46 0° 98° (E) 3,696 13.5 56.1°
